Location: Holyhead Bay
(53.3667°N, 4.6667°W)
Time: 19:46:58
(UTC+00:00)

Cosmos 2154 Rocket - Pass Details

Date: 24 November 2020
Orbit: 966 x 996 km, 82.9° (Epoch: 17 January)

Event Time Altitude Azimuth Distance (km) Brightness Sun altitude
Rises 17:13:54 0° 349° (N) 3,710 6.9 -9.2°
Reaches altitude 10° 17:16:27 10° 352° (N) 2,761 6.2 -9.5°
Maximum altitude 17:22:48 75° 78° (ENE) 1,033 4.0 -10.4°
Drops below altitude 10° 17:29:08 10° 163° (SSE) 2,758 6.4 -11.3°
Sets 17:31:40 0° 166° (SSE) 3,704 7.1 -11.7°
